| time (UTC) | temp C | wind direction | speed KPH | gust KPH | rain 1hr cm | rain 24hr cm | rain mn cm | humidity % | barometer mb |
| 20260506070505 | 8 | 212 | 0.0 | 0.0 | 0.00 | 0.30 | 0.00 | 94 | 1017.2 |
| 20260506062004 | 9 | 212 | 1.6 | 3.2 | 0.00 | 0.53 | 0.33 | 94 | 1017.0 |
| 20260506061504 | 9 | 212 | 0.0 | 0.0 | 0.00 | 0.53 | 0.33 | 94 | 1017.0 |
| 20260506051004 | 8 | 212 | 0.0 | 0.0 | 0.00 | 0.58 | 0.33 | 94 | 1016.5 |
| 20260506045004 | 9 | 212 | 1.6 | 3.2 | 0.00 | 0.58 | 0.33 | 94 | 1016.3 |
| 20260506044504 | 9 | 212 | 1.6 | 3.2 | 0.00 | 0.58 | 0.33 | 94 | 1016.1 |
| 20260506044004 | 9 | 212 | 1.6 | 3.2 | 0.00 | 0.58 | 0.33 | 94 | 1016.2 |
| 20260506043505 | 8 | 212 | 0.0 | 0.0 | 0.00 | 0.58 | 0.33 | 94 | 1016.2 |
| 20260506043004 | 8 | 212 | 0.0 | 0.0 | 0.00 | 0.58 | 0.33 | 94 | 1016.2 |
| 20260506042504 | 9 | 212 | 0.0 | 0.0 | 0.00 | 0.58 | 0.33 | 94 | 1016.2 |
| 20260506042004 | 9 | 212 | 0.0 | 1.6 | 0.00 | 0.61 | 0.33 | 93 | 1016.1 |
| 20260506041504 | 9 | 212 | 1.6 | 3.2 | 0.00 | 0.61 | 0.33 | 93 | 1016.0 |
| 20260506041004 | 9 | 212 | 0.0 | 1.6 | 0.00 | 0.61 | 0.33 | 93 | 1016.0 |
| 20260506040504 | 9 | 212 | 1.6 | 3.2 | 0.00 | 0.61 | 0.33 | 93 | 1016.0 |
| 20260506040004 | 9 | 212 | 0.0 | 0.0 | 0.00 | 0.61 | 0.33 | 93 | 1015.9 |
| 20260506035503 | 9 | 212 | 0.0 | 0.0 | 0.00 | 0.61 | 0.33 | 93 | 1015.9 |
| 20260506035004 | 9 | 212 | 0.0 | 0.0 | 0.00 | 0.61 | 0.33 | 93 | 1015.8 |
| 20260506034504 | 9 | 212 | 0.0 | 1.6 | 0.00 | 0.61 | 0.33 | 92 | 1015.5 |
| 20260506034004 | 9 | 212 | 0.0 | 0.0 | 0.00 | 0.61 | 0.33 | 92 | 1015.5 |
| 20260506033504 | 9 | 212 | 0.0 | 0.0 | 0.00 | 0.61 | 0.33 | 92 | 1015.3 |
| 20260506033005 | 10 | 212 | 0.0 | 0.0 | 0.00 | 0.61 | 0.33 | 92 | 1015.3 |
| 20260506032504 | 10 | 212 | 0.0 | 1.6 | 0.00 | 0.61 | 0.33 | 92 | 1015.3 |
| 20260506032004 | 10 | 212 | 0.0 | 0.0 | 0.00 | 0.61 | 0.33 | 92 | 1015.2 |
| 20260506031504 | 10 | 212 | 1.6 | 3.2 | 0.00 | 0.61 | 0.33 | 92 | 1015.3 |
| 20260506031004 | 10 | 212 | 0.0 | 3.2 | 0.00 | 0.61 | 0.33 | 92 | 1015.2 |
| 20260506030504 | 10 | 212 | 1.6 | 1.6 | 0.00 | 0.61 | 0.33 | 92 | 1015.1 |
| 20260506030004 | 10 | 212 | 0.0 | 1.6 | 0.00 | 0.61 | 0.33 | 92 | 1015.2 |
| 20260506025504 | 10 | 212 | 1.6 | 3.2 | 0.00 | 0.61 | 0.33 | 92 | 1015.2 |
| 20260506025004 | 10 | 212 | 1.6 | 3.2 | 0.00 | 0.61 | 0.33 | 92 | 1015.4 |
| 20260506024504 | 10 | 212 | 0.0 | 0.0 | 0.00 | 0.61 | 0.33 | 92 | 1015.3 |
| 20260506024004 | 10 | 212 | 0.0 | 0.0 | 0.00 | 0.61 | 0.33 | 92 | 1015.2 |
| 20260506023004 | 10 | 212 | 0.0 | 0.0 | 0.00 | 0.61 | 0.33 | 92 | 1015.3 |
| 20260506022504 | 10 | 212 | 0.0 | 0.0 | 0.00 | 0.61 | 0.33 | 92 | 1015.3 |
| 20260506022004 | 10 | 212 | 0.0 | 0.0 | 0.00 | 0.61 | 0.33 | 92 | 1015.5 |
| 20260506021504 | 10 | 212 | 0.0 | 0.0 | 0.00 | 0.61 | 0.33 | 92 | 1015.4 |
| 20260506021004 | 10 | 212 | 0.0 | 0.0 | 0.00 | 0.61 | 0.33 | 92 | 1015.1 |
| 20260506020504 | 10 | 212 | 0.0 | 0.0 | 0.00 | 0.61 | 0.33 | 92 | 1015.5 |
| 20260506020004 | 10 | 213 | 0.0 | 0.0 | 0.00 | 0.61 | 0.33 | 92 | 1015.2 |
| 20260506014005 | 10 | 212 | 0.0 | 0.0 | 0.00 | 0.61 | 0.33 | 92 | 1015.0 |
| 20260506013504 | 10 | 212 | 0.0 | 0.0 | 0.00 | 0.61 | 0.33 | 92 | 1015.1 |
| 20260506013003 | 10 | 212 | 0.0 | 0.0 | 0.00 | 0.61 | 0.33 | 92 | 1015.1 |
| 20260506012504 | 10 | 212 | 0.0 | 0.0 | 0.00 | 0.61 | 0.33 | 92 | 1015.1 |
| 20260506012006 | 10 | 212 | 0.0 | 0.0 | 0.00 | 0.61 | 0.33 | 92 | 1015.1 |
| 20260506011006 | 10 | 212 | 0.0 | 0.0 | 0.00 | 0.61 | 0.33 | 92 | 1015.0 |
| 20260506010506 | 10 | 212 | 0.0 | 0.0 | 0.00 | 0.61 | 0.33 | 92 | 1015.1 |
| 20260506010006 | 10 | 212 | 0.0 | 0.0 | 0.00 | 0.61 | 0.33 | 92 | 1015.0 |
| 20260506005506 | 10 | 212 | 0.0 | 0.0 | 0.00 | 0.61 | 0.33 | 93 | 1015.0 |
| 20260506005006 | 10 | 212 | 0.0 | 0.0 | 0.00 | 0.61 | 0.33 | 92 | 1015.0 |
| 20260506004506 | 10 | 212 | 0.0 | 1.6 | 0.00 | 0.61 | 0.33 | 92 | 1015.0 |
| 20260506004006 | 10 | 212 | 1.6 | 3.2 | 0.00 | 0.61 | 0.33 | 91 | 1015.0 |
| 20260506003006 | 10 | 213 | 1.6 | 4.8 | 0.00 | 0.61 | 0.33 | 90 | 1014.9 |
| 20260506002506 | 10 | 213 | 1.6 | 4.8 | 0.00 | 0.61 | 0.33 | 90 | 1014.9 |
| 20260506002006 | 10 | 213 | 0.0 | 3.2 | 0.00 | 0.61 | 0.33 | 90 | 1014.8 |
| 20260506001506 | 10 | 213 | 0.0 | 3.2 | 0.00 | 0.61 | 0.33 | 90 | 1014.8 |
| 20260506001005 | 10 | 213 | 1.6 | 3.2 | 0.00 | 0.61 | 0.33 | 89 | 1014.7 |
| 20260506000505 | 10 | 213 | 0.0 | 3.2 | 0.00 | 0.61 | 0.33 | 90 | 1014.8 |
| 20260506000005 | 10 | 213 | 0.0 | 1.6 | 0.00 | 0.61 | 0.33 | 91 | 1014.8 |
| 20260505235506 | 10 | 213 | 1.6 | 3.2 | 0.00 | 0.61 | 0.33 | 90 | 1014.6 |
| 20260505235006 | 10 | 213 | 1.6 | 4.8 | 0.00 | 0.61 | 0.33 | 90 | 1014.6 |
| 20260505234506 | 10 | 213 | 1.6 | 3.2 | 0.00 | 0.61 | 0.33 | 90 | 1014.6 |
| 20260505234006 | 10 | 213 | 0.0 | 1.6 | 0.00 | 0.61 | 0.33 | 91 | 1014.6 |
| 20260505233505 | 10 | 213 | 0.0 | 3.2 | 0.00 | 0.61 | 0.33 | 92 | 1014.5 |
| 20260505232506 | 10 | 213 | 0.0 | 0.0 | 0.00 | 0.61 | 0.33 | 92 | 1014.6 |
| 20260505232006 | 10 | 213 | 0.0 | 1.6 | 0.00 | 0.61 | 0.33 | 92 | 1014.4 |
| 20260505231506 | 10 | 213 | 0.0 | 3.2 | 0.00 | 0.61 | 0.33 | 92 | 1014.5 |
| 20260505231006 | 10 | 213 | 0.0 | 4.8 | 0.00 | 0.61 | 0.33 | 92 | 1014.5 |
| 20260505230505 | 10 | 213 | 3.2 | 4.8 | 0.00 | 0.61 | 0.33 | 91 | 1014.5 |
| 20260505230006 | 10 | 213 | 3.2 | 4.8 | 0.00 | 0.61 | 0.33 | 91 | 1014.5 |
| 20260505225505 | 10 | 212 | 1.6 | 4.8 | 0.00 | 0.61 | 0.33 | 92 | 1014.4 |
| 20260505225006 | 10 | 212 | 0.0 | 3.2 | 0.00 | 0.61 | 0.33 | 92 | 1014.4 |
| 20260505224505 | 10 | 212 | 1.6 | 4.8 | 0.00 | 0.61 | 0.33 | 91 | 1014.4 |
| 20260505223506 | 10 | 212 | 3.2 | 4.8 | 0.00 | 0.61 | 0.33 | 90 | 1014.5 |
| 20260505223007 | 10 | 212 | 1.6 | 4.8 | 0.00 | 0.61 | 0.33 | 90 | 1014.6 |
| 20260505222506 | 10 | 212 | 1.6 | 4.8 | 0.00 | 0.61 | 0.33 | 89 | 1014.6 |
| 20260505222006 | 10 | 212 | 3.2 | 4.8 | 0.00 | 0.64 | 0.33 | 88 | 1014.5 |
| 20260505221006 | 10 | 212 | 0.0 | 3.2 | 0.00 | 0.64 | 0.33 | 89 | 1014.7 |
| 20260505220505 | 10 | 212 | 0.0 | 3.2 | 0.00 | 0.64 | 0.33 | 89 | 1014.7 |
| 20260505215005 | 10 | 212 | 0.0 | 1.6 | 0.00 | 0.66 | 0.33 | 90 | 1014.7 |
| 20260505214506 | 10 | 212 | 0.0 | 3.2 | 0.00 | 0.66 | 0.33 | 90 | 1014.7 |
| 20260505214006 | 10 | 212 | 1.6 | 3.2 | 0.00 | 0.66 | 0.33 | 90 | 1014.7 |
| 20260505212507 | 10 | 212 | 1.6 | 3.2 | 0.00 | 0.74 | 0.33 | 89 | 1014.7 |
| 20260505212006 | 10 | 212 | 1.6 | 4.8 | 0.00 | 0.79 | 0.33 | 88 | 1014.8 |
| 20260505211506 | 10 | 212 | 3.2 | 4.8 | 0.00 | 0.84 | 0.33 | 89 | 1014.7 |
| 20260505210505 | 10 | 212 | 3.2 | 4.8 | 0.00 | 0.89 | 0.33 | 89 | 1014.8 |
| 20260505205506 | 10 | 212 | 1.6 | 4.8 | 0.00 | 0.91 | 0.33 | 89 | 1014.6 |
| 20260505205005 | 10 | 212 | 3.2 | 4.8 | 0.00 | 0.94 | 0.33 | 89 | 1014.6 |
| 20260505204506 | 10 | 211 | 1.6 | 4.8 | 0.00 | 0.97 | 0.33 | 89 | 1014.6 |
| 20260505203506 | 10 | 210 | 3.2 | 4.8 | 0.00 | 0.97 | 0.33 | 88 | 1014.6 |
| 20260505203006 | 10 | 210 | 0.0 | 3.2 | 0.00 | 0.97 | 0.33 | 89 | 1014.5 |
| 20260505202505 | 9 | 210 | 0.0 | 3.2 | 0.00 | 0.97 | 0.33 | 89 | 1014.5 |
| 20260505201506 | 10 | 210 | 1.6 | 4.8 | 0.00 | 0.97 | 0.33 | 89 | 1014.5 |
| 20260505201005 | 9 | 210 | 3.2 | 4.8 | 0.00 | 0.97 | 0.33 | 90 | 1014.5 |
| 20260505200506 | 9 | 211 | 1.6 | 4.8 | 0.00 | 0.97 | 0.33 | 89 | 1014.6 |
| 20260505200006 | 9 | 211 | 3.2 | 4.8 | 0.00 | 0.97 | 0.33 | 89 | 1014.6 |
| 20260505195506 | 9 | 199 | 1.6 | 4.8 | 0.00 | 0.97 | 0.33 | 89 | 1014.7 |
| 20260505195007 | 9 | 199 | 3.2 | 8.0 | 0.00 | 0.97 | 0.33 | 89 | 1014.5 |
| 20260505194505 | 9 | 199 | 4.8 | 11.3 | 0.00 | 0.97 | 0.33 | 89 | 1014.6 |
| 20260505194005 | 9 | 175 | 4.8 | 9.7 | 0.00 | 0.97 | 0.33 | 89 | 1014.5 |
| 20260505193006 | 9 | 210 | 3.2 | 11.3 | 0.00 | 0.97 | 0.33 | 89 | 1014.4 |
| 20260505192505 | 9 | 175 | 8.0 | 11.3 | 0.00 | 0.97 | 0.33 | 88 | 1014.3 |
| 20260505192006 | 9 | 178 | 3.2 | 8.0 | 0.00 | 0.97 | 0.33 | 88 | 1014.3 |
| 20260505191506 | 9 | 260 | 3.2 | 11.3 | 0.00 | 0.97 | 0.33 | 89 | 1014.3 |
| 20260505191006 | 9 | 189 | 3.2 | 4.8 | 0.00 | 0.97 | 0.33 | 89 | 1014.3 |
| 20260505190006 | 9 | 189 | 3.2 | 8.0 | 0.00 | 0.97 | 0.33 | 90 | 1014.2 |
| 20260505185505 | 8 | 189 | 0.0 | 4.8 | 0.00 | 0.97 | 0.33 | 91 | 1014.2 |
| 20260505185005 | 8 | 189 | 3.2 | 8.0 | 0.00 | 0.97 | 0.33 | 91 | 1014.2 |
| 20260505184506 | 8 | 273 | 6.4 | 12.9 | 0.00 | 0.97 | 0.33 | 90 | 1014.3 |
| 20260505184005 | 9 | 231 | 4.8 | 12.9 | 0.00 | 0.97 | 0.33 | 90 | 1014.2 |
| 20260505183505 | 9 | 204 | 6.4 | 11.3 | 0.00 | 0.97 | 0.33 | 90 | 1014.2 |
| 20260505183006 | 8 | 213 | 4.8 | 8.0 | 0.00 | 0.97 | 0.33 | 90 | 1014.2 |
| 20260505182506 | 8 | 199 | 8.0 | 11.3 | 0.00 | 0.97 | 0.33 | 91 | 1014.2 |
| 20260505181506 | 9 | 225 | 3.2 | 4.8 | 0.00 | 0.97 | 0.33 | 91 | 1014.1 |
| 20260505181005 | 9 | 232 | 3.2 | 12.9 | 0.00 | 0.97 | 0.33 | 90 | 1014.0 |
| 20260505180006 | 8 | 265 | 8.0 | 11.3 | 0.00 | 0.97 | 0.33 | 89 | 1013.8 |
| 20260505175005 | 9 | 331 | 4.8 | 12.9 | 0.00 | 0.99 | 0.33 | 89 | 1013.7 |
| 20260505174505 | 9 | 343 | 4.8 | 9.7 | 0.00 | 0.99 | 0.33 | 90 | 1013.7 |
| 20260505174006 | 9 | 274 | 3.2 | 14.5 | 0.00 | 0.99 | 0.33 | 90 | 1013.6 |
| 20260505172505 | 9 | 291 | 3.2 | 4.8 | 0.00 | 1.02 | 0.33 | 88 | 1013.5 |
| 20260505172006 | 10 | 278 | 4.8 | 11.3 | 0.00 | 1.02 | 0.33 | 89 | 1013.4 |
| 20260505171506 | 10 | 269 | 8.0 | 12.9 | 0.00 | 1.02 | 0.33 | 89 | 1013.4 |
| 20260505171005 | 9 | 252 | 1.6 | 9.7 | 0.00 | 1.02 | 0.33 | 89 | 1013.5 |
| 20260505170506 | 9 | 252 | 3.2 | 8.0 | 0.00 | 1.04 | 0.33 | 89 | 1013.4 |
| 20260505170005 | 9 | 186 | 3.2 | 8.0 | 0.00 | 1.07 | 0.33 | 91 | 1013.4 |
| 20260505165505 | 9 | 269 | 3.2 | 4.8 | 0.00 | 1.09 | 0.33 | 90 | 1013.4 |
| 20260505165006 | 9 | 266 | 4.8 | 9.7 | 0.00 | 1.14 | 0.33 | 90 | 1013.3 |
| 20260505162506 | 9 | 232 | 0.0 | 4.8 | 0.00 | 1.19 | 0.33 | 90 | 1013.2 |
| 20260505162005 | 9 | 231 | 4.8 | 8.0 | 0.00 | 1.19 | 0.33 | 92 | 1013.3 |
| 20260505161506 | 9 | 148 | 0.0 | 1.6 | 0.00 | 1.19 | 0.33 | 93 | 1013.2 |
| 20260505161006 | 8 | 148 | 1.6 | 4.8 | 0.00 | 1.19 | 0.33 | 94 | 1013.2 |
| 20260505153005 | 7 | 158 | 0.0 | 0.0 | 0.00 | 1.19 | 0.33 | 95 | 1013.1 |
| 20260505152505 | 7 | 158 | 0.0 | 0.0 | 0.00 | 1.19 | 0.33 | 95 | 1013.2 |
| 20260505152006 | 7 | 158 | 0.0 | 0.0 | 0.00 | 1.19 | 0.33 | 95 | 1013.3 |
| 20260505151505 | 7 | 158 | 0.0 | 0.0 | 0.00 | 1.19 | 0.33 | 95 | 1013.4 |
| 20260505151005 | 7 | 158 | 0.0 | 0.0 | 0.00 | 1.19 | 0.33 | 95 | 1013.4 |
| 20260505150505 | 7 | 158 | 0.0 | 0.0 | 0.00 | 1.19 | 0.33 | 95 | 1013.3 |
| 20260505140505 | 7 | 123 | 0.0 | 0.0 | 0.00 | 1.19 | 0.33 | 95 | 1012.5 |
| 20260505125006 | 7 | 123 | 0.0 | 0.0 | 0.05 | 1.19 | 0.33 | 95 | 1012.7 |
| 20260505124506 | 7 | 123 | 0.0 | 0.0 | 0.05 | 1.19 | 0.33 | 95 | 1012.6 |
| 20260505124006 | 7 | 123 | 0.0 | 0.0 | 0.03 | 1.17 | 0.30 | 95 | 1012.5 |
| 20260505123505 | 7 | 123 | 0.0 | 0.0 | 0.03 | 1.17 | 0.30 | 95 | 1012.4 |
| 20260505123005 | 7 | 123 | 0.0 | 0.0 | 0.05 | 1.17 | 0.30 | 95 | 1012.6 |
| 20260505122505 | 7 | 123 | 0.0 | 0.0 | 0.05 | 1.17 | 0.30 | 95 | 1012.6 |
| 20260505121506 | 7 | 123 | 0.0 | 0.0 | 0.03 | 1.14 | 0.28 | 95 | 1012.6 |
| 20260505121005 | 7 | 123 | 0.0 | 0.0 | 0.05 | 1.14 | 0.28 | 95 | 1012.4 |
| 20260505120007 | 7 | 123 | 0.0 | 0.0 | 0.05 | 1.14 | 0.28 | 95 | 1012.3 |
| 20260505115506 | 7 | 123 | 0.0 | 0.0 | 0.05 | 1.14 | 0.28 | 95 | 1012.4 |
| 20260505115005 | 7 | 123 | 0.0 | 0.0 | 0.08 | 1.14 | 0.28 | 95 | 1012.4 |
| 20260505114006 | 7 | 123 | 0.0 | 0.0 | 0.13 | 1.14 | 0.28 | 95 | 1012.3 |
| 20260505113505 | 7 | 123 | 0.0 | 0.0 | 0.15 | 1.14 | 0.28 | 95 | 1012.4 |
| 20260505113006 | 7 | 123 | 0.0 | 0.0 | 0.15 | 1.12 | 0.25 | 95 | 1012.3 |
| 20260505112505 | 7 | 123 | 0.0 | 0.0 | 0.15 | 1.12 | 0.25 | 95 | 1012.3 |
| 20260505112005 | 7 | 123 | 0.0 | 0.0 | 0.18 | 1.12 | 0.25 | 95 | 1012.3 |
| 20260505111517 | 7 | 123 | 0.0 | 0.0 | 0.18 | 1.12 | 0.25 | 95 | 1012.5 |
| 20260505111006 | 7 | 123 | 0.0 | 0.0 | 0.15 | 1.09 | 0.23 | 95 | 1012.6 |
| 20260505110506 | 7 | 123 | 0.0 | 0.0 | 0.15 | 1.09 | 0.23 | 95 | 1012.8 |
| 20260505101506 | 7 | 123 | 0.0 | 0.0 | 0.00 | 0.94 | 0.08 | 95 | 1012.8 |
| 20260505101005 | 7 | 123 | 0.0 | 0.0 | 0.00 | 0.94 | 0.08 | 94 | 1012.8 |
| 20260505100505 | 7 | 123 | 0.0 | 0.0 | 0.00 | 0.94 | 0.08 | 95 | 1012.9 |
| 20260505100005 | 7 | 123 | 0.0 | 0.0 | 0.00 | 0.94 | 0.08 | 95 | 1013.1 |
| 20260505095505 | 7 | 123 | 0.0 | 0.0 | 0.00 | 0.94 | 0.08 | 95 | 1013.0 |
| 20260505095005 | 7 | 123 | 0.0 | 0.0 | 0.00 | 0.94 | 0.08 | 95 | 1012.9 |
| 20260505094505 | 7 | 123 | 0.0 | 0.0 | 0.00 | 0.94 | 0.08 | 95 | 1012.8 |
| 20260505094006 | 7 | 123 | 0.0 | 0.0 | 0.00 | 0.94 | 0.08 | 95 | 1012.9 |
| 20260505093505 | 7 | 123 | 0.0 | 0.0 | 0.00 | 0.94 | 0.08 | 95 | 1013.0 |
| 20260505093005 | 7 | 123 | 0.0 | 0.0 | 0.00 | 0.94 | 0.08 | 95 | 1013.0 |
| 20260505092505 | 7 | 123 | 0.0 | 0.0 | 0.00 | 0.94 | 0.08 | 94 | 1013.1 |
| 20260505092005 | 7 | 123 | 0.0 | 0.0 | 0.00 | 0.94 | 0.08 | 94 | 1013.0 |
| 20260505091005 | 7 | 123 | 0.0 | 0.0 | 0.00 | 0.94 | 0.08 | 94 | 1012.9 |
| 20260505090505 | 7 | 123 | 0.0 | 0.0 | 0.00 | 0.94 | 0.08 | 94 | 1012.9 |
| 20260505090005 | 7 | 123 | 0.0 | 0.0 | 0.00 | 0.94 | 0.08 | 94 | 1013.1 |
| 20260505085505 | 7 | 123 | 0.0 | 0.0 | 0.00 | 0.94 | 0.08 | 94 | 1013.1 |
| 20260505085006 | 7 | 123 | 0.0 | 0.0 | 0.03 | 0.94 | 0.08 | 94 | 1013.3 |
| 20260505084505 | 7 | 123 | 0.0 | 0.0 | 0.03 | 0.94 | 0.08 | 95 | 1013.4 |
| 20260505084005 | 7 | 123 | 0.0 | 0.0 | 0.03 | 0.94 | 0.08 | 95 | 1013.5 |
| 20260505083505 | 7 | 123 | 0.0 | 0.0 | 0.03 | 0.94 | 0.08 | 95 | 1013.5 |
| 20260505083006 | 7 | 123 | 0.0 | 0.0 | 0.03 | 0.94 | 0.08 | 94 | 1013.6 |
| 20260505082512 | 7 | 123 | 0.0 | 0.0 | 0.03 | 0.94 | 0.08 | 94 | 1013.5 |
| 20260505082005 | 7 | 123 | 0.0 | 0.0 | 0.05 | 0.94 | 0.08 | 94 | 1013.3 |
| 20260505081005 | 7 | 123 | 0.0 | 0.0 | 0.05 | 0.94 | 0.08 | 94 | 1013.5 |
| 20260505080005 | 7 | 123 | 0.0 | 0.0 | 0.08 | 0.94 | 0.08 | 94 | 1013.5 |
| 20260505075505 | 7 | 123 | 0.0 | 0.0 | 0.08 | 0.94 | 0.08 | 94 | 1013.4 |
| 20260505075005 | 7 | 123 | 0.0 | 0.0 | 0.08 | 0.91 | 0.05 | 94 | 1013.2 |
| 20260505074005 | 7 | 123 | 0.0 | 0.0 | 0.18 | 0.91 | 0.05 | 94 | 1013.3 |
| 20260505073506 | 7 | 123 | 0.0 | 0.0 | 0.20 | 0.91 | 0.05 | 94 | 1013.3 |
| 20260505073005 | 7 | 123 | 0.0 | 0.0 | 0.23 | 0.91 | 0.05 | 94 | 1013.4 |
| 20260505072505 | 7 | 123 | 0.0 | 0.0 | 0.25 | 0.91 | 0.05 | 94 | 1013.3 |
| 20260505072006 | 7 | 123 | 0.0 | 0.0 | 0.23 | 0.89 | 0.03 | 94 | 1013.2 |
| 20260505071505 | 7 | 123 | 0.0 | 0.0 | 0.23 | 0.89 | 0.03 | 94 | 1013.2 |
| 20260505071007 | 7 | 123 | 0.0 | 0.0 | 0.25 | 0.89 | 0.03 | 94 | 1013.3 |